Terminal Aerodrome Forecast
Issued by NWS Houston/Galveston, TX

Home | Current Version | Previous Version | Text Only | Print | Product List | Glossary On
Versions: 1 2 3 4 5 6 7 8 9 10 11 12 13 14 15 16 17 18 19 20 21 22 23 24 25 26 27 28 29 30 31 32 33 34 35 36 37 38 39 40 41 42 43 44 45 46 47 48 49 50
004
FTUS44 KHGX 261120
TAFCLL
TAF
KCLL 261120Z 2612/2712 12003KT 4SM BR OVC003
      TEMPO 2613/2615 6SM BR BKN010
     FM261500 15010KT P6SM BKN015
     FM261700 17012G22KT P6SM SCT035
     FM262200 17016G26KT P6SM BKN035
     FM270300 17012KT P6SM OVC025
     FM270600 17012KT 6SM BR SCT007 BKN015=

USA.gov is the U.S. government's official web portal to all federal, state and local government web resources and services.